Orbital Elements at Epoch 2459200.5 (2020-Dec-17.0) TDB
Reference: JPL 33 (heliocentric ecliptic J2000)
Element | Value | Uncertainty (1-sigma) | Units |
e | .2794229520557059 | 1.4457e-08 | |
a | 2.630576613916158 | 7.2881e-09 | au |
q | 1.895533130847002 | 3.7778e-08 | au |
i | 5.733105867292608 | 5.6451e-07 | deg |
node | 67.04807143276132 | 8.6609e-06 | deg |
peri | 48.03543106523671 | 8.1258e-06 | deg |
M | 5.567710026810748 | 3.6405e-06 | deg |
tp | 2459176.398228374185 (2020-Nov-22.89822837) | 1.5727e-05 | TDB |
period | 1558.38535834517 4.27 | 6.4764e-06 1.773e-08 | d yr |
n | .2310083305597015 | 9.6003e-10 | deg/d |
Q | 3.365620096985314 | 9.3246e-09 | au |
|
| | Orbit Determination Parameters
Additional Information
|